Volver al catálogo

SL-4 R/B

ActivoCienciaPO
NORAD 68753·ROCKET BODY·🇷🇺 Russia

Lanzado Apr 16, 2026 desde Plesetsk Cosmodrome

Loading…

Próximos Pases (próximas 24 horas)

TLE

ActualizadoSource: Space-Track

Época: Sep 14, 2026, 21:54 UTC

1 68753U 26083A   26257.91259210  .00004326  00000-0  17712-3 0  9995
2 68753  98.2850  58.3771 0061018 281.1462  78.2916 15.23260512 22985

Sigue SL-4 R/B en tiempo real con AllMySat

Download on the App Store